User: anonymous   Login
Location: Unspecified
(0.0000°N, 0.0000°E)
Time: 22:23:30
(UTC+00:00)
Language:

SPADEX B - Orbit

View from above orbital plane
View from above orbital plane
View from above satellite
View from above satellite

Ground track
Ground track

The orbit is defined by the following mean orbital elements,

1 62460U          26145.55484966 +.00000000 +00000-0 +62017-3 0 00005
2 62460  54.9932  94.3338 0006469  98.4014 261.7760 15.65989599    08
Epoch (UTC): 25 May 2026 13:18:59
Eccentricity: 0.0006469
inclination: 54.9932°
perigee height: 366 km
apogee height: 375 km
right ascension of ascending node: 94.3338°
argument of perigee: 98.4014°
revolutions per day: 15.65989599
mean anomaly at epoch: 261.7760°

The dashed part of the orbit path shows where the satellite is in the earth's shadow,  

DLR